Back to catalog

COSMOS 1275 DEB

AlivePO
NORAD 18639·DEBRIS·🇷🇺 Russia

Launched Jun 4, 1981 from Plesetsk Cosmodrome

Loading…

Next Passes (next 24 hours)

TLE

FreshSource: Space-Track

Epoch: Sep 14, 2026, 11:17 UTC

1 18639U 81053LZ  26257.47038733  .00000893  00000-0  94597-3 0  9998
2 18639  83.0563  74.8113 0141230 265.7739 121.1781 13.69290602 50507

Track COSMOS 1275 DEB in real time with AllMySat

Download on the App Store